Regional Weather Roundup
Issued by NWS Newport/Morehead, NC

Current Version | Previous Version | Text Only | Print | Product List | Glossary Off
Versions: 1 2 3 4 5 6 7 8 9 10 11 12 13 14 15 16 17 18 19 20 21 22 23 24 25 26 27 28 29 30 31 32 33 34 35 36 37 38 39 40 41 42 43 44 45 46 47 48 49 50
000 ASUS42 KMHX 201713 RWRMHX WEATHER ROUNDUP FOR EASTERN NORTH CAROLINA NATIONAL WEATHER SERVICE NEWPORT/MOREHEAD CITY NC 100 PM EDT WED SEP 20 2017 NOTE: "FAIR" INDICATES FEW OR NO CLOUDS BELOW 12,000 FEET WITH NO SIGNIFICANT WEATHER AND/OR OBSTRUCTIONS TO VISIBILITY NCZ015>017-031-032-045>047-102-103-201800- NORTH COAST CITY SKY/WX TMP DP RH WIND PRES REMARKS EDENTON SUNNY 86 69 56 CALM 29.98F ELIZABETH CITY SUNNY 85 68 56 NW17G23 29.95F KITTY HAWK SUNNY 77 66 68 CALM 29.95S MANTEO SUNNY 80 67 64 NW10 29.97S $$ NCZ045>047-081-094-103-104-201800- CENTRAL COAST CITY SKY/WX TMP DP RH WIND PRES REMARKS FRISCO SUNNY 81 72 74 VRB7 29.97S $$ NCZ095-097-098-100-101-201800- SOUTHERN COAST CITY SKY/WX TMP DP RH WIND PRES REMARKS BEAUFORT SUNNY 85 70 60 NW10 29.98F CEDAR ISLAND NOT AVBL JACKSONVILLE MOSUNNY 86 69 56 NW9 29.99F PINEY ISLAND N/A N/A N/A N/A W13G21 29.97F WILMINGTON SUNNY 87 67 51 W9 30.00F $$ NCZ011>013-027>030-043-044-078>080-089-090>093-098-201800- COASTAL PLAIN CITY SKY/WX TMP DP RH WIND PRES REMARKS AHOSKIE N/A 82 68 63 N3 29.98F CLINTON SUNNY 86 70 58 W5 30.01F ELIZABETHTOWN NOT AVBL GOLDSBORO SUNNY 86 71 60 W10 29.98F GREENVILLE SUNNY 86 68 54 W3 30.00F HAVELOCK SUNNY 88 69 53 NW13 29.99F KENANSVILLE SUNNY 86 70 58 W8 30.00F KINSTON SUNNY 86 68 54 SW7 29.99F NEW BERN SUNNY 86 69 56 W12 29.99F RICHLANDS SUNNY 88 70 55 W8 30.00F ROCKY MOUNT MOSUNNY 86 70 58 VRB6 29.98F WASHINGTON SUNNY 86 68 55 W6 29.98F WHITEVILLE SUNNY 85 67 53 W6 30.02S $$ AMZ130-135-150-152-154-156-158-170-250-252-270-ANZ085-086-088-633-658-670-201800- MARINE OBSERVATIONS STATION/POSITION TIME TEMP WIND PRES WAVE SWELL AIR SEA DIR/SP/G HT/PER HT/PER (UTC) (F) (DEG/KT/KT) (MB) (FT/S) (FT/S) CHESAPEAKE LIGHT NOT AVBL 64 E VA BEACH 1650 70 70 290/ 12/ 14 1013.8 9/11 8/11 DUCK 1642 80 74 330/ 11/ 12 1013.8 2 E DUCK 1600 75 N/A 5/11 3/11 OREGON INLET 1642 80 74 290/ 12/ 15 1014.3 13E OREGON INLT 1648 74 N/A 6/11 7/11 HATTERAS CG 1642 77 75 290/ 9/ 10 1014.9 DIAMOND BUOY 1650 75 75 290/ 8/ 10 1014.8 5/11 5/11 CAPE LOOKOUT 1700 81 250/ 10/ 13 1015.2 BEAUFORT LAB 1642 84 74 300/ 7/ 11 1014.9 30 SE NEW RVR IN 1608 79 280/ 8/ 12 1016.1 30 SE NEW RVR IN NOT AVBL 27 SE WRIGHTSVLE 1608 79 80 260/ 8/ 10 1016.6 5 SE WRIGHTSVLE 1608 80 78 310/ 6/ 8 1016.3 225 S CAPE HAT 1650 80 81 300/ 4/ 6 1016.7 8/12 8/12 41 SE CHARLESTON 1650 80 82 290/ 4/ 6 1016.9 4/ 9 3/ 9 $$

USA.gov is the U.S. government's official web portal to all federal, state and local government web resources and services.